Regional Weather Roundup
Issued by NWS

Home | Current Version | Previous Version | Text Only | Print | Product List | Glossary Off
Versions: 1 2 3 4 5 6 7 8 9 10 11 12 13 14 15 16 17 18 19 20 21 22 23 24 25 26 27 28 29 30 31 32 33 34 35 36 37 38 39 40 41 42 43 44 45 46 47 48 49 50

000
ASUS43 KLSX 231359
RWRMO

WEATHER SUMMARY FOR MISSOURI
NATIONAL WEATHER SERVICE SPRINGFIELD MO
900 AM CDT SAT MAY 23 2015

NOTE: "FAIR" INDICATES FEW OR NO CLOUDS BELOW 12,000 FEET WITH NO
       SIGNIFICANT WEATHER AND/OR OBSTRUCTIONS TO VISIBILITY.
       CURRENT SKY AND/OR WEATHER CONDITIONS ARE NOT AVAILABLE FOR
       CHILLICOTHE AND FARMINGTON.

MOZ001>031-035>038-043-044-053-054-231500-
...NORTHERN AND WESTERN MISSOURI...

CITY           SKY/WX    TMP DP  RH WIND       PRES   REMARKS
KANSAS CTY INT CLOUDY    60  54  80 SE9       30.22F
KANSAS C DTWN  CLOUDY    62  53  72 S5        30.22S
LEE`S SUMMIT   CLOUDY    61  52  72 S12G17    30.24R
ST JOSEPH      CLOUDY    60  56  86 SE8       30.22F
KIRKSVILLE     PTSUNNY   65  53  65 S10       30.29S

$$
MOZ066>068-077>081-088>096-101>105-231500-
...SOUTHWEST MISSOURI...

CITY           SKY/WX    TMP DP  RH WIND       PRES   REMARKS
SPRINGFIELD    CLOUDY    61  51  70 SE14      30.25R
JOPLIN         CLOUDY    58  56  93 SE8       30.24R

$$
MOZ032>034-039>042-045>050-055>058-069>072-231500-
...CENTRAL MISSOURI...

CITY           SKY/WX    TMP DP  RH WIND       PRES   REMARKS
COLUMBIA       PTSUNNY   67  53  61 SE9       30.28F
JEFFERSON CITY CLOUDY    66  51  58 SE10      30.28F
ROLLA          CLOUDY    63  51  65 SE10      30.28S
SEDALIA        CLOUDY    64  52  64 SE9       30.26F
OSAGE BEACH    CLOUDY    64  50  59 SE7       30.27F

$$
MOZ051-052-059>065-231500-
...EAST CENTRAL MISSOURI...

CITY           SKY/WX    TMP DP  RH WIND       PRES   REMARKS
ST LOUIS INTL  LGT RAIN  67  54  63 SE6       30.33R
SPIRIT OF STL  PTSUNNY   66  57  72 CALM      30.32R
ST CHARLES     PTSUNNY   68  53  58 S7        30.32R

$$
MOZ072>076-082>087-097>100-106>115-231500-
...SOUTH CENTRAL AND SOUTHEAST MISSOURI...

CITY           SKY/WX    TMP DP  RH WIND       PRES   REMARKS
CAPE GIRARDEAU MOSUNNY   69  52  54 SE10      30.32R
FARMINGTON     MOSUNNY   66  54  63 SE6       30.36S
POPLAR BLUFF   CLOUDY    67  54  63 E6        30.30R
WEST PLAINS    CLOUDY    62  51  67 E8        30.30S

$$


USA.gov is the U.S. government's official web portal to all federal, state and local government web resources and services.